Total_Precipitation_Accumulation
0.05 0.16 0.36 0.59 1.02 1.35 1.20 0.75 0.48 0.28 0.32 0.42 0.52 0.61 0.58 0.65 0.89 1.38 1.10 0.67 0.44 0.49 0.46 0.56 0.71 0.60 0.59 0.62 0.70 0.82 0.96 1.02 1.06 0.97 1.07 1.25 1.44 1.55 1.72 1.80 1.85 2.04 2.31 2.45 2.35 2.21 2.17 2.08 2.03
0.10 0.30 0.51 0.79 1.17 1.16 0.96 0.58 0.32 0.25 0.27 0.39 0.45 0.42 0.40 0.37 0.34 0.42 0.61 0.54 0.42 0.38 0.26 0.31 0.50 0.55 0.53 0.58 0.65 0.75 0.85 0.92 0.95 0.93 0.98 1.15 1.40 1.60 1.82 1.93 1.90 1.93 2.08 2.30 2.27 2.27 2.18 2.07 1.93
0.18 0.33 0.55 0.84 0.89 0.71 0.59 0.36 0.29 0.29 0.35 0.44 0.43 0.37 0.38 0.48 0.31 0.29 0.41 0.39 0.34 0.26 0.21 0.30 0.42 0.44 0.44 0.48 0.61 0.76 0.86 0.91 0.92 0.90 0.99 1.09 1.37 1.68 1.81 1.83 1.84 1.81 1.87 2.04 2.20 2.13 1.88 1.86 1.82
0.20 0.32 0.47 0.58 0.52 0.40 0.33 0.27 0.24 0.25 0.39 0.55 0.59 0.44 0.35 0.35 0.26 0.23 0.26 0.25 0.26 0.24 0.19 0.27 0.39 0.38 0.39 0.46 0.59 0.72 0.79 0.88 0.94 0.96 1.02 1.14 1.39 1.65 1.78 1.64 1.60 1.68 1.68 1.73 1.88 1.82 1.63 1.70 1.85
0.21 0.30 0.53 0.46 0.35 0.30 0.27 0.23 0.22 0.24 0.34 0.57 0.66 0.62 0.56 0.49 0.33 0.27 0.30 0.23 0.19 0.19 0.22 0.26 0.38 0.40 0.43 0.47 0.56 0.71 0.79 0.89 1.01 1.06 1.10 1.20 1.43 1.66 1.72 1.59 1.71 1.68 1.61 1.63 1.65 1.66 1.71 1.96 2.04
0.22 0.31 0.36 0.35 0.24 0.20 0.19 0.19 0.26 0.30 0.45 0.56 0.57 0.65 0.74 0.65 0.48 0.34 0.34 0.27 0.23 0.19 0.21 0.27 0.38 0.41 0.46 0.54 0.64 0.74 0.86 0.90 0.97 1.02 1.04 1.13 1.37 1.55 1.52 1.56 1.67 1.52 1.53 1.59 1.50 1.45 1.54 1.79 1.98
0.17 0.24 0.26 0.30 0.24 0.19 0.14 0.16 0.30 0.36 0.62 0.76 0.79 0.74 0.87 0.84 0.57 0.41 0.40 0.34 0.33 0.30 0.33 0.36 0.37 0.39 0.51 0.62 0.76 0.84 0.89 0.92 0.91 0.94 1.00 1.12 1.19 1.34 1.40 1.46 1.50 1.46 1.50 1.42 1.32 1.36 1.37 1.47 1.73
0.09 0.15 0.19 0.22 0.19 0.14 0.13 0.15 0.26 0.34 0.53 0.61 0.74 0.87 1.05 0.87 0.62 0.54 0.53 0.52 0.53 0.55 0.58 0.52 0.45 0.48 0.52 0.58 0.80 0.93 0.93 0.91 0.90 0.99 1.08 1.24 1.25 1.22 1.25 1.20 1.28 1.34 1.29 1.29 1.34 1.34 1.34 1.43 1.57
0.08 0.12 0.14 0.15 0.11 0.10 0.09 0.14 0.20 0.36 0.45 0.48 0.61 0.76 0.92 0.70 0.64 0.74 0.86 0.89 0.88 0.85 0.90 0.78 0.73 0.63 0.68 0.73 0.83 0.97 0.97 1.01 1.12 1.20 1.30 1.57 1.77 1.53 1.52 1.30 1.45 1.46 1.41 1.41 1.47 1.50 1.54 1.51 1.58
0.08 0.08 0.07 0.06 0.06 0.06 0.08 0.13 0.20 0.35 0.72 0.93 1.05 0.95 0.80 0.78 0.82 0.89 1.01 1.07 1.10 1.13 0.97 0.96 1.00 0.86 0.92 0.98 1.10 1.42 1.32 1.33 1.52 1.59 1.58 1.90 2.05 1.96 1.52 1.61 1.90 1.96 1.97 1.88 1.89 2.02 1.98 1.67 1.45
0.05 0.05 0.04 0.04 0.03 0.03 0.06 0.12 0.14 0.30 0.83 1.39 1.50 1.16 0.83 0.92 1.06 1.20 1.26 1.31 1.22 1.28 1.14 1.27 1.28 1.21 1.28 1.56 1.37 1.49 1.72 1.85 1.86 1.87 2.05 2.25 1.96 1.78 1.68 1.87 2.17 2.23 2.22 2.13 2.24 2.47 2.25 2.15 2.13
0.02 0.03 0.03 0.03 0.03 0.03 0.05 0.13 0.18 0.32 0.77 1.20 1.22 0.97 0.81 1.03 1.19 1.47 1.62 1.74 1.80 1.83 1.83 1.77 1.81 1.84 1.86 1.71 1.70 1.59 1.61 1.73 1.91 2.01 2.03 2.23 2.32 2.29 2.14 2.21 2.21 2.22 2.32 2.57 2.50 2.63 2.71 2.71 2.46
0.02 0.02 0.03 0.03 0.03 0.04 0.07 0.12 0.23 0.44 0.54 0.60 0.71 0.74 0.85 1.14 1.45 1.81 2.02 2.21 2.34 2.62 2.74 2.67 2.52 2.35 2.44 2.45 2.28 1.87 1.94 1.87 1.85 2.15 2.22 2.29 2.46 2.57 2.50 2.40 2.44 2.14 2.15 2.47 2.77 2.64 2.77 2.91 2.74
0.02 0.02 0.03 0.03 0.04 0.05 0.07 0.13 0.27 0.52 0.53 0.54 0.64 0.69 0.82 1.23 1.77 2.26 2.37 2.49 2.77 3.41 3.85 3.59 3.33 3.02 2.94 2.96 2.84 2.69 2.33 2.22 2.04 2.22 2.30 2.48 2.68 2.78 2.74 2.55 2.52 2.17 2.06 2.28 2.56 2.59 2.82 2.83 2.82
0.04 0.05 0.07 0.07 0.06 0.12 0.14 0.24 0.43 0.64 0.59 0.59 0.71 0.75 0.83 1.21 1.68 2.42 2.80 3.04 3.32 4.04 4.59 4.31 4.15 4.08 3.85 3.74 3.35 2.88 2.55 2.35 2.49 2.61 2.68 2.78 2.87 2.97 2.90 2.76 2.51 2.34 2.35 2.42 2.43 2.53 2.95 2.79 2.65
0.06 0.09 0.19 0.16 0.11 0.14 0.22 0.55 0.65 0.71 0.65 0.69 0.91 0.85 0.85 1.16 1.67 2.39 3.02 3.51 3.84 4.21 4.60 4.94 4.62 4.97 4.88 4.62 4.12 3.56 3.26 3.15 2.99 2.92 3.01 2.84 2.85 2.87 3.01 2.70 2.37 2.47 2.59 2.68 2.68 2.69 2.89 2.92 3.01
0.10 0.16 0.26 0.27 0.17 0.16 0.24 0.66 0.76 0.61 0.63 0.79 0.97 0.98 1.01 1.25 1.60 2.10 2.77 3.34 3.90 4.48 4.97 5.46 5.67 5.75 5.34 4.97 4.54 4.21 3.99 3.71 3.26 2.81 2.66 2.55 2.38 2.23 2.32 2.14 2.06 2.13 2.25 2.20 2.08 2.41 2.65 2.80 2.97
0.09 0.14 0.21 0.36 0.28 0.19 0.26 0.54 0.70 0.64 0.64 0.83 1.05 1.02 1.07 1.27 1.63 2.04 2.63 3.11 3.76 4.61 5.43 5.86 5.97 5.59 5.18 4.81 4.34 4.15 3.83 3.47 3.09 2.65 2.34 2.16 2.08 1.85 1.92 1.72 1.68 1.88 2.08 2.12 2.25 2.42 2.40 2.34 2.44
0.08 0.12 0.19 0.29 0.24 0.21 0.34 0.55 0.67 0.70 0.76 0.92 1.08 1.07 1.11 1.21 1.58 2.04 2.57 3.09 3.78 4.69 5.61 5.96 5.71 5.13 4.68 4.27 3.78 3.41 3.07 2.82 2.70 2.39 2.08 1.99 1.92 1.87 2.03 1.76 1.90 1.93 2.01 2.04 2.06 2.16 2.09 1.87 2.02
0.10 0.14 0.19 0.26 0.20 0.22 0.36 0.59 0.78 0.88 0.97 0.93 0.98 1.08 1.03 1.22 1.64 2.14 2.74 3.17 3.52 4.05 4.79 5.08 4.74 4.10 3.51 3.24 3.08 2.89 2.79 2.48 2.29 2.19 2.09 1.82 1.82 1.78 1.77 1.85 1.61 1.64 1.78 1.73 1.79 2.10 2.06 1.78 1.87
0.11 0.13 0.19 0.23 0.16 0.23 0.39 0.77 1.05 1.11 0.91 0.73 0.66 0.78 0.79 0.95 1.47 2.21 2.75 3.05 3.30 3.50 3.49 3.60 3.50 3.00 2.65 2.55 2.54 2.49 2.56 2.39 2.15 2.03 1.89 1.65 1.58 1.49 1.52 1.55 1.57 1.66 1.58 1.66 1.77 1.87 1.98 1.86 1.72
0.11 0.08 0.09 0.12 0.16 0.35 0.46 1.08 1.32 1.15 0.99 0.77 0.62 0.63 0.64 0.86 1.32 2.08 2.37 2.49 2.53 2.62 2.42 2.41 2.50 2.33 2.27 2.17 2.20 2.08 1.93 1.88 1.78 1.78 1.74 1.64 1.52 1.43 1.33 1.37 1.40 1.52 1.51 1.73 1.55 1.64 1.84 1.87 1.66
0.10 0.07 0.08 0.12 0.18 0.35 0.57 0.97 1.34 1.21 1.12 0.82 0.62 0.58 0.67 0.75 1.02 1.37 1.44 1.57 1.65 1.72 1.76 1.92 2.18 2.21 2.09 2.03 2.15 2.17 1.89 1.72 1.62 1.64 1.72 1.62 1.52 1.42 1.30 1.32 1.41 1.47 1.51 1.55 1.57 1.78 1.77 1.70 1.66
0.08 0.10 0.15 0.29 0.43 0.76 0.77 0.90 1.33 1.18 0.92 0.66 0.55 0.56 0.51 0.53 0.71 0.91 0.97 1.02 1.09 1.15 1.27 1.48 1.89 2.08 1.94 1.88 1.94 1.92 1.85 1.78 1.64 1.54 1.55 1.54 1.49 1.49 1.49 1.40 1.48 1.47 1.48 1.47 1.49 1.63 1.67 1.69 1.73
0.08 0.12 0.35 0.74 1.16 1.26 0.78 0.88 1.20 0.82 0.57 0.43 0.37 0.40 0.43 0.55 0.64 0.74 0.89 0.95 0.87 0.84 0.97 1.18 1.47 1.60 1.56 1.61 1.73 1.81 1.87 1.81 1.64 1.56 1.47 1.45 1.38 1.41 1.53 1.51 1.52 1.53 1.54 1.45 1.49 1.53 1.51 1.58 1.70
0.10 0.12 0.25 0.46 0.60 0.73 0.73 1.16 1.25 0.70 0.46 0.35 0.32 0.33 0.44 0.51 0.49 0.51 0.61 0.63 0.61 0.68 0.77 0.94 1.09 1.16 1.25 1.36 1.54 1.68 1.70 1.69 1.64 1.69 1.55 1.44 1.33 1.31 1.43 1.53 1.52 1.45 1.38 1.36 1.61 1.50 1.43 1.53 1.59
0.08 0.09 0.11 0.14 0.21 0.49 0.82 1.08 0.97 0.63 0.43 0.33 0.32 0.31 0.40 0.41 0.35 0.34 0.36 0.39 0.44 0.59 0.71 0.78 0.88 0.98 1.09 1.20 1.41 1.55 1.57 1.54 1.56 1.62 1.55 1.39 1.39 1.34 1.40 1.35 1.43 1.43 1.34 1.39 1.55 1.54 1.50 1.55 1.52
0.08 0.09 0.08 0.10 0.22 0.45 0.78 1.14 1.14 0.82 0.63 0.53 0.40 0.32 0.36 0.34 0.29 0.31 0.31 0.30 0.30 0.37 0.52 0.67 0.75 0.90 1.06 1.14 1.17 1.24 1.42 1.40 1.36 1.30 1.28 1.35 1.37 1.35 1.41 1.42 1.32 1.32 1.35 1.44 1.56 1.52 1.50 1.60 1.68
0.08 0.08 0.08 0.09 0.10 0.25 0.60 0.92 0.76 0.63 0.51 0.53 0.47 0.41 0.37 0.35 0.33 0.29 0.33 0.33 0.30 0.34 0.44 0.58 0.66 0.77 0.88 0.91 0.94 1.06 1.17 1.17 1.13 1.12 1.10 1.20 1.22 1.25 1.28 1.30 1.30 1.29 1.37 1.58 1.82 1.76 1.71 1.74 1.80
0.08 0.07 0.09 0.11 0.12 0.15 0.32 0.52 0.41 0.42 0.41 0.47 0.49 0.51 0.50 0.50 0.47 0.41 0.42 0.39 0.40 0.40 0.42 0.53 0.53 0.57 0.63 0.70 0.77 0.87 0.99 0.99 0.99 1.02 1.15 1.23 1.21 1.14 1.05 1.09 1.16 1.15 1.26 1.52 1.84 1.98 1.98 2.00 1.95